SCP
0 -0 -0 -0 -0 0 0 0 0 0 0 0 0 0 0 0 1 1 1 1 1 0 0 0 0 0 0 0 0 0 0 0 0 1 1 1 0 0 0 0 0 0 0 0
0 0 0 0 0 0 0 0 0 0 0 0 0 0 0 0 0 1 1 1 1 0 0 0 0 0 0 0 0 0 0 0 0 0 0 0 0 0 0 0 0 0 0 0
0 0 0 0 0 0 0 0 0 0 0 0 0 0 0 0 0 0 0 0 0 0 0 0 0 0 0 0 0 0 0 0 0 0 0 0 0 0 0 0 0 0 0 0
0 0 0 0 0 0 0 0 0 0 0 0 0 0 0 0 0 0 0 0 0 0 0 0 0 0 0 0 0 0 0 0 0 0 0 0 0 0 0 0 0 0 0 0
0 0 0 0 0 0 0 0 0 0 0 0 0 0 0 0 0 0 0 0 0 -0 -0 -0 -0 -0 -0 0 0 0 0 0 0 0 0 0 0 0 0 0 0 0 0 0
0 0 0 0 0 0 0 0 0 0 0 0 0 0 0 0 0 0 -0 -0 -0 -0 -0 -0 -0 -0 -0 0 0 0 0 0 0 0 0 0 0 0 0 0 0 0 0 0
0 0 0 0 0 0 0 0 0 0 0 0 0 0 0 0 0 0 -0 -0 -0 -0 -0 -0 -0 -0 -0 0 0 0 0 0 0 0 0 0 0 0 0 0 0 0 0 0
0 0 0 0 0 0 0 0 0 0 0 0 0 0 0 0 0 0 0 0 -0 -0 -0 -0 -0 -0 -0 0 0 0 0 0 0 0 0 0 0 0 0 0 0 0 0 0
0 0 0 0 0 0 0 0 0 0 0 0 0 0 0 0 0 0 0 0 0 0 0 0 0 0 0 0 0 0 0 0 0 0 0 -0 -0 -0 0 0 0 0 0 0
0 0 0 0 0 0 0 0 0 0 0 0 0 0 0 0 0 0 0 0 0 0 0 0 0 0 0 0 0 0 0 0 0 0 0 0 -0 -0 -0 0 0 0 0 0
0 0 0 0 0 0 0 0 0 0 0 0 0 0 0 0 0 0 0 0 0 0 0 0 0 0 0 0 0 0 0 0 0 0 0 0 0 0 0 0 0 0 0 0
0 0 0 0 0 0 0 0 0 0 0 0 0 0 0 0 0 0 0 0 0 0 0 0 0 0 0 0 0 0 0 0 0 0 0 0 0 0 0 0 0 0 0 0
0 0 0 0 0 0 0 0 0 0 0 0 0 0 0 0 0 0 0 0 0 0 0 0 0 0 0 0 0 0 0 0 0 0 0 0 0 0 0 0 0 0 0 0
0 0 0 0 0 0 0 0 0 0 0 0 0 0 0 0 0 0 0 0 0 0 0 0 0 0 0 0 0 0 0 0 0 0 0 0 0 0 0 0 0 0 0 0
0 0 0 0 0 0 0 0 0 0 0 0 0 0 0 0 0 0 0 0 0 0 0 0 0 0 0 0 0 0 0 0 0 0 0 0 0 0 0 0 0 0 0 0
0 0 0 0 0 0 0 0 0 0 0 0 0 0 0 0 0 0 0 0 0 0 0 0 0 0 0 0 0 0 0 0 0 0 0 0 0 0 0 0 0 0 0 0
0 0 0 0 0 0 0 0 0 0 0 0 0 0 0 0 0 0 0 0 0 0 0 0 0 0 0 0 0 0 0 0 0 0 0 0 0 0 0 0 0 0 0 0
0 0 0 0 0 0 0 0 0 0 0 0 0 0 0 0 0 0 0 0 0 0 0 0 0 0 0 0 0 0 0 0 0 0 0 0 0 0 0 0 0 0 0 0
0 0 0 0 0 0 0 0 0 0 0 0 0 0 0 0 0 0 0 0 0 0 0 0 0 0 0 0 0 0 0 0 0 0 0 0 0 0 0 0 0 0 0 0
0 0 0 0 0 0 0 0 0 0 0 0 0 0 0 0 0 0 0 0 0 0 0 0 0 0 0 0 0 0 0 0 0 0 0 0 0 0 0 0 0 0 0 0
0 0 0 0 0 0 0 0 0 0 0 0 0 0 0 0 0 0 0 0 0 0 0 0 0 0 0 0 0 0 0 0 0 0 0 0 0 0 0 0 0 0 0 0
0 0 0 0 0 0 0 0 0 0 0 0 0 0 0 0 0 0 0 0 0 0 0 0 0 0 0 0 0 0 0 0 0 0 0 0 0 0 0 0 0 0 0 0
0 0 0 0 0 0 0 0 0 0 0 0 0 0 0 0 0 0 0 0 0 0 0 0 0 0 0 0 0 0 0 0 0 0 0 0 0 0 0 0 0 0 0 0
0 0 0 0 0 0 0 0 0 0 0 0 0 0 0 0 0 0 0 0 0 0 0 0 0 0 0 0 0 0 0 0 0 0 0 0 0 0 0 0 0 0 0 0
0 0 0 0 0 0 0 0 0 0 0 0 0 0 0 0 0 0 0 0 0 0 0 0 0 0 0 0 0 0 0 0 0 0 0 0 0 0 0 0 0 0 0 0
0 0 0 0 0 0 0 0 0 0 0 0 0 0 0 0 0 0 0 0 0 0 0 0 0 0 0 0 0 0 0 0 0 0 0 0 0 0 0 0 0 0 0 0
Wind_Speed
2 2 5 10 8 9 5 4 4 4 5 9 15 18 19 20 22 20 16 14 11 9 6 5 5 5 5 5 8 11 9 6 5 4 2 2 2 2 2 3 5 6 6 6
3 5 12 9 7 5 4 4 5 5 6 7 14 18 17 21 20 17 15 13 10 7 6 7 6 7 8 8 9 9 7 5 4 3 2 3 3 2 2 3 4 6 6 6
3 4 7 7 8 5 5 3 3 5 5 7 8 10 13 14 16 16 15 12 12 11 9 9 10 11 12 12 10 8 8 6 5 4 3 2 1 1 1 1 2 4 6 7
4 7 10 10 7 3 4 5 3 4 4 4 4 3 5 7 13 14 12 11 10 9 9 9 12 12 12 10 9 9 7 7 7 7 5 4 3 2 2 2 2 3 4 6
4 5 7 7 5 3 3 4 3 3 1 2 4 5 1 3 8 9 8 8 6 6 7 8 9 8 8 7 7 6 6 7 7 8 9 7 6 4 3 3 4 3 2 3
4 3 3 5 5 2 2 6 8 7 6 3 3 4 1 2 2 3 4 3 2 3 4 5 5 5 5 5 5 5 6 6 6 7 7 7 7 7 6 6 5 4 3 3
6 7 5 3 3 5 6 7 6 7 6 2 1 5 2 3 3 4 3 2 2 1 2 3 3 3 2 2 2 3 4 4 5 5 6 5 6 6 6 6 5 5 4 3
2 6 6 4 1 3 1 8 6 3 4 2 3 2 2 3 3 3 3 3 2 1 1 1 1 1 1 1 1 0 1 2 3 3 4 3 4 3 3 4 4 4 4 4
4 6 6 6 4 1 1 0 4 6 1 2 1 2 1 3 4 3 3 3 2 1 0 1 2 3 3 3 3 2 2 2 3 2 2 2 3 3 4 4 4 4 4 5
4 3 6 5 6 6 3 3 6 5 2 2 2 3 4 8 7 4 3 3 2 2 3 4 5 5 5 5 5 4 4 4 4 4 4 4 4 4 4 4 4 4 4 4
3 2 6 6 3 3 4 4 4 3 4 3 2 4 4 7 5 4 3 3 3 4 5 6 7 6 5 4 4 4 5 5 6 7 6 6 6 6 5 5 6 5 5 5
2 4 2 4 4 3 4 2 3 3 2 2 1 4 2 3 2 1 0 3 4 6 7 7 6 5 4 4 5 6 7 7 8 8 8 8 8 7 7 7 8 6 6 6
3 6 5 9 10 8 6 5 4 5 4 3 2 5 4 2 2 3 3 6 7 8 7 5 4 4 5 6 7 8 8 9 10 9 9 9 9 8 8 9 8 8 7 7
5 5 4 3 6 3 4 6 6 6 4 2 1 2 7 6 5 6 7 8 8 7 5 5 5 6 7 8 8 9 9 9 10 9 9 9 10 10 10 9 9 9 8 8
6 4 3 3 2 8 9 8 9 8 4 2 2 2 3 5 5 6 7 9 8 6 6 8 8 8 9 9 9 10 10 9 9 9 9 11 11 10 9 9 9 9 9 10
5 4 5 6 7 11 11 10 8 6 5 3 3 1 4 5 5 7 9 10 8 8 10 11 11 10 10 11 11 11 10 10 9 9 10 10 10 9 9 9 9 9 9 9
3 4 4 4 4 3 6 6 5 3 4 3 2 4 7 7 8 9 10 9 10 12 13 13 12 12 12 12 12 12 12 11 10 10 11 10 10 10 9 9 8 8 9 9
4 3 3 2 6 3 3 1 4 4 4 3 1 5 6 7 8 8 8 9 12 13 13 13 12 12 12 11 11 11 11 10 10 10 11 10 10 10 9 8 8 7 6 7
4 5 3 3 1 1 0 3 3 1 3 2 3 7 8 8 6 6 9 10 12 14 13 12 12 13 11 11 12 12 12 11 11 10 10 9 9 9 9 8 8 7 6 7
6 6 5 3 1 3 2 4 5 1 2 2 6 7 8 8 8 7 9 11 11 11 10 10 10 10 11 11 12 12 13 12 12 11 11 9 8 8 8 8 8 7 6 7
4 5 4 2 1 2 3 5 5 5 7 7 5 6 6 6 7 11 13 10 9 9 10 10 10 11 12 13 12 13 14 14 13 13 12 12 10 9 9 7 7 7 7 7
4 3 1 2 1 5 3 4 3 5 6 5 5 5 6 8 10 10 10 10 11 10 10 11 12 13 13 13 13 15 15 15 14 14 14 13 11 10 10 7 7 7 7 7
4 7 6 6 5 4 2 3 3 4 3 4 5 6 6 8 8 9 9 10 10 11 12 12 14 16 15 13 13 16 16 15 15 14 13 13 12 10 9 8 8 7 7 6
2 3 4 3 3 4 3 1 1 1 1 4 4 6 7 8 9 9 9 10 11 11 13 14 16 17 17 15 15 15 15 14 13 13 12 10 10 9 8 7 6 6 6 6
6 4 3 2 1 1 2 2 2 2 3 5 6 6 7 7 8 8 8 10 11 12 13 14 16 17 18 17 16 15 14 12 12 12 10 9 8 8 7 6 6 7 6 6
1 5 6 5 5 4 4 2 2 4 5 5 6 7 7 6 7 8 9 10 11 14 15 15 16 17 17 17 16 15 13 11 11 9 9 6 6 5 5 5 5 8 9 10
Wind_Direction
303 108 249 251 223 222 264 301 314 308 336 46 62 60 49 48 54 52 47 45 51 57 46 43 51 63 75 70 75 73 62 20 342 350 356 345 271 249 207 185 179 171 165 159
330 250 245 258 298 312 329 343 337 328 353 51 78 70 59 54 57 54 46 36 30 34 36 36 42 54 58 58 54 66 60 33 337 299 263 246 240 241 211 190 184 181 171 165
236 285 325 328 321 328 329 324 331 333 2 31 91 65 52 55 59 56 48 37 29 29 36 40 48 48 49 48 41 44 43 28 350 335 314 312 332 4 21 267 215 206 188 175
354 336 348 333 310 319 308 297 327 346 18 343 52 95 56 58 54 51 45 37 27 22 31 41 47 47 49 47 45 43 38 23 6 9 14 11 12 352 323 291 268 245 210 189
311 315 328 313 295 321 272 306 355 353 28 32 28 98 36 31 47 45 46 44 27 24 33 44 47 48 47 44 42 36 33 32 22 22 23 22 22 2 344 347 342 315 262 220
263 260 249 266 300 320 21 31 28 37 54 28 340 106 16 13 80 81 69 66 41 38 50 55 55 55 48 41 34 26 23 19 17 24 25 23 18 8 8 6 356 343 327 305
329 319 294 266 324 337 49 63 24 1 4 294 27 95 175 176 164 147 144 157 171 138 83 77 68 60 53 44 32 30 27 11 6 17 21 17 11 4 3 354 347 343 337 326
342 311 309 321 266 239 302 121 139 213 246 284 16 106 191 185 185 180 169 164 167 168 110 104 143 160 199 211 217 238 18 344 347 1 358 358 1 353 340 335 331 333 324 311
188 267 297 317 326 102 28 359 172 150 24 67 102 108 240 243 223 200 169 148 139 147 199 248 246 230 225 222 222 218 231 274 289 288 289 298 315 318 314 315 315 314 314 320
161 257 303 332 26 17 129 138 65 70 63 348 307 214 213 206 217 202 184 175 193 233 263 268 261 248 235 214 205 204 213 237 251 255 253 251 257 263 272 287 296 299 303 313
102 100 321 357 20 334 359 30 77 93 133 133 307 287 228 196 194 188 193 204 234 259 268 269 271 272 265 248 235 236 240 245 251 252 251 253 254 254 258 263 267 271 279 290
45 97 340 304 295 350 43 40 107 108 352 92 135 288 291 170 167 136 306 296 294 291 287 292 304 310 306 288 275 263 256 254 254 252 252 252 254 253 252 256 260 262 267 270
75 80 28 348 345 3 34 25 68 111 94 69 69 313 352 44 29 9 340 320 309 305 311 321 322 310 290 272 264 260 257 255 256 254 252 254 257 255 251 250 252 254 255 261
94 83 131 205 261 302 56 48 51 78 79 51 70 321 358 2 355 344 333 318 309 310 315 305 289 277 269 262 256 253 253 251 253 252 248 248 250 250 251 251 249 249 247 250
77 54 337 295 58 85 75 61 63 71 75 87 328 96 353 335 325 314 310 310 313 311 302 293 280 271 266 263 258 254 251 250 248 244 242 241 243 243 245 248 249 249 248 248
67 51 18 10 82 96 70 45 46 48 38 18 42 85 302 305 314 318 317 317 311 302 301 297 290 282 275 269 265 260 256 253 245 236 234 233 233 235 237 241 245 248 249 249
59 67 42 334 319 75 33 28 51 31 29 66 49 302 305 318 318 309 308 308 301 304 304 300 293 285 282 280 275 270 264 257 246 240 237 231 225 224 227 232 235 238 245 248
121 90 100 7 25 30 242 96 77 93 97 69 359 297 300 298 294 288 294 298 302 302 302 299 297 295 293 291 291 287 282 273 262 255 248 238 227 224 222 221 224 230 233 238
132 126 90 77 20 204 312 11 357 296 174 57 352 326 318 306 305 287 279 290 295 298 302 306 308 309 311 312 313 311 306 298 291 283 270 256 242 232 221 218 221 224 230 238
53 81 93 75 15 258 259 319 310 342 261 339 352 328 317 334 332 299 298 302 302 306 310 315 318 319 320 319 321 319 313 308 301 298 291 278 261 245 231 223 224 225 226 235
27 39 64 60 311 276 296 321 37 59 277 297 311 314 317 313 281 291 309 313 313 313 315 318 319 318 314 311 311 307 304 301 299 298 296 290 277 261 247 236 233 234 234 235
135 112 100 90 5 274 322 49 74 242 256 288 301 303 301 293 292 301 310 314 318 320 318 319 320 317 313 311 309 305 301 298 296 293 290 285 279 271 269 249 241 238 236 236
150 174 176 176 205 217 125 142 201 216 269 291 295 300 304 310 309 315 315 319 320 318 319 323 321 318 316 312 308 304 302 300 297 293 288 285 280 271 262 254 249 247 236 232
250 152 113 113 152 167 148 139 32 37 328 312 311 312 322 319 317 321 320 321 322 322 324 325 324 323 322 319 314 306 304 304 300 296 292 287 281 274 266 256 248 244 236 227
204 144 115 144 177 160 347 354 22 27 2 344 331 323 326 327 324 322 323 322 324 325 325 325 325 323 321 319 317 314 313 311 307 302 298 293 283 275 270 260 249 242 235 221
212 150 151 207 218 186 253 292 58 33 353 335 334 331 330 332 323 325 324 322 325 326 327 326 325 322 320 319 318 317 316 313 310 308 306 300 293 284 275 271 272 249 237 232